| time (UTC) | temp C | wind direction | speed KPH | gust KPH | rain 1hr cm | rain 24hr cm | rain mn cm | humidity % | barometer mb |
| 20260905133052 | 26 | 0 | 0.0 | 8.0 | 0.00 | 0.00 | 0.00 | 79 | 1014.2 |
| 20260905131550 | 26 | 0 | 0.0 | 3.2 | 0.00 | 0.00 | 0.00 | 81 | 1014.3 |
| 20260905130052 | 25 | 0 | 0.0 | 6.4 | 0.00 | 0.00 | 0.00 | 83 | 1014.4 |
| 20260905124553 | 25 | 0 | 0.0 | 4.8 | 0.00 | 0.00 | 0.00 | 84 | 1014.6 |
| 20260905123059 | 23 | 0 | 0.0 | 4.8 | 0.00 | 0.00 | 0.00 | 87 | 1014.4 |
| 20260905121550 | 23 | 0 | 0.0 | 6.4 | 0.00 | 0.00 | 0.00 | 88 | 1014.6 |
| 20260905120050 | 22 | 0 | 0.0 | 0.0 | 0.00 | 0.00 | 0.00 | 90 | 1014.4 |
| 20260905114548 | 22 | 0 | 0.0 | 0.0 | 0.00 | 0.00 | 0.00 | 92 | 1014.2 |
| 20260905113056 | 21 | 0 | 0.0 | 0.0 | 0.00 | 0.00 | 0.00 | 92 | 1014.0 |
| 20260905111641 | 21 | 0 | 0.0 | 0.0 | 0.00 | 0.00 | 0.00 | 91 | 1013.9 |
| 20260905110051 | 21 | 0 | 0.0 | 0.0 | 0.00 | 0.00 | 0.00 | 91 | 1013.9 |
| 20260905104554 | 21 | 0 | 0.0 | 0.0 | 0.00 | 0.00 | 0.00 | 91 | 1013.7 |
| 20260905103056 | 21 | 0 | 0.0 | 0.0 | 0.00 | 0.00 | 0.00 | 91 | 1013.6 |
| 20260905101603 | 21 | 0 | 0.0 | 0.0 | 0.00 | 0.00 | 0.00 | 91 | 1013.6 |
| 20260905100053 | 22 | 0 | 0.0 | 0.0 | 0.00 | 0.00 | 0.00 | 91 | 1013.4 |
| 20260905094600 | 22 | 0 | 0.0 | 0.0 | 0.00 | 0.00 | 0.00 | 90 | 1013.5 |
| 20260905093102 | 22 | 0 | 0.0 | 0.0 | 0.00 | 0.00 | 0.00 | 89 | 1013.3 |
| 20260905091552 | 22 | 0 | 0.0 | 0.0 | 0.00 | 0.00 | 0.00 | 89 | 1013.4 |
| 20260905090053 | 22 | 0 | 0.0 | 0.0 | 0.00 | 0.00 | 0.00 | 88 | 1013.4 |
| 20260905084553 | 22 | 0 | 0.0 | 0.0 | 0.00 | 0.00 | 0.00 | 88 | 1013.4 |
| 20260905083045 | 22 | 0 | 0.0 | 0.0 | 0.00 | 0.00 | 0.00 | 88 | 1013.6 |
| 20260905081552 | 23 | 0 | 0.0 | 0.0 | 0.00 | 0.00 | 0.00 | 87 | 1013.9 |
| 20260905080100 | 23 | 0 | 0.0 | 0.0 | 0.00 | 0.00 | 0.00 | 87 | 1013.9 |
| 20260905074549 | 23 | 0 | 0.0 | 0.0 | 0.00 | 0.00 | 0.00 | 86 | 1014.0 |
| 20260905073058 | 23 | 0 | 0.0 | 0.0 | 0.00 | 0.00 | 0.00 | 83 | 1013.7 |
| 20260905071555 | 23 | 0 | 0.0 | 0.0 | 0.00 | 0.00 | 0.00 | 82 | 1013.7 |
| 20260905070055 | 23 | 0 | 0.0 | 0.0 | 0.00 | 0.00 | 0.00 | 83 | 1014.8 |
| 20260905064551 | 23 | 0 | 0.0 | 0.0 | 0.00 | 0.00 | 0.00 | 84 | 1014.9 |
| 20260905063059 | 23 | 0 | 0.0 | 0.0 | 0.00 | 0.00 | 0.00 | 84 | 1015.1 |
| 20260905061558 | 23 | 0 | 0.0 | 0.0 | 0.00 | 0.00 | 0.00 | 84 | 1015.0 |
| 20260905060059 | 23 | 0 | 0.0 | 0.0 | 0.00 | 0.00 | 0.00 | 83 | 1015.5 |
| 20260905054551 | 24 | 0 | 0.0 | 0.0 | 0.00 | 0.00 | 0.00 | 83 | 1015.8 |
| 20260905053111 | 24 | 0 | 0.0 | 0.0 | 0.00 | 0.00 | 0.00 | 82 | 1015.8 |
| 20260905051558 | 24 | 0 | 0.0 | 0.0 | 0.00 | 0.00 | 0.00 | 81 | 1015.9 |
| 20260905050056 | 24 | 0 | 0.0 | 0.0 | 0.00 | 0.00 | 0.00 | 81 | 1016.1 |
| 20260905044603 | 24 | 0 | 0.0 | 0.0 | 0.00 | 0.00 | 0.00 | 81 | 1016.3 |
| 20260905043102 | 24 | 0 | 0.0 | 0.0 | 0.00 | 0.00 | 0.00 | 80 | 1016.4 |
| 20260905041601 | 24 | 0 | 0.0 | 4.8 | 0.00 | 0.00 | 0.00 | 79 | 1016.2 |
| 20260905040058 | 24 | 98 | 0.0 | 4.8 | 0.00 | 0.00 | 0.00 | 80 | 1016.4 |
| 20260905034605 | 24 | 0 | 0.0 | 0.0 | 0.00 | 0.00 | 0.00 | 80 | 1016.2 |
| 20260905033115 | 24 | 0 | 0.0 | 0.0 | 0.00 | 0.00 | 0.00 | 78 | 1015.8 |
| 20260905031602 | 24 | 0 | 0.0 | 0.0 | 0.00 | 0.00 | 0.00 | 78 | 1015.7 |
| 20260905030105 | 24 | 0 | 0.0 | 0.0 | 0.00 | 0.00 | 0.00 | 76 | 1015.6 |
| 20260905024556 | 25 | 0 | 0.0 | 0.0 | 0.00 | 0.00 | 0.00 | 75 | 1015.6 |
| 20260905023111 | 25 | 0 | 0.0 | 0.0 | 0.00 | 0.00 | 0.00 | 75 | 1015.6 |
| 20260905021552 | 25 | 0 | 0.0 | 0.0 | 0.00 | 0.00 | 0.00 | 75 | 1015.7 |
| 20260905020052 | 25 | 0 | 0.0 | 0.0 | 0.00 | 0.00 | 0.00 | 75 | 1015.7 |
| 20260905014601 | 25 | 0 | 0.0 | 6.4 | 0.00 | 0.00 | 0.00 | 74 | 1015.3 |
| 20260905013057 | 25 | 0 | 0.0 | 3.2 | 0.00 | 0.00 | 0.00 | 74 | 1015.0 |
| 20260905011556 | 25 | 0 | 0.0 | 4.8 | 0.00 | 0.00 | 0.00 | 73 | 1015.0 |
| 20260905010105 | 25 | 0 | 0.0 | 0.0 | 0.00 | 0.00 | 0.00 | 73 | 1014.9 |
| 20260905004617 | 25 | 0 | 0.0 | 3.2 | 0.00 | 0.00 | 0.00 | 72 | 1015.1 |
| 20260905003056 | 25 | 0 | 0.0 | 3.2 | 0.00 | 0.00 | 0.00 | 72 | 1015.0 |
| 20260905001558 | 25 | 0 | 0.0 | 0.0 | 0.00 | 0.00 | 0.00 | 72 | 1015.6 |
| 20260905000105 | 25 | 0 | 0.0 | 0.0 | 0.00 | 0.00 | 0.00 | 72 | 1016.2 |
| 20260904234548 | 25 | 121 | 0.0 | 11.3 | 0.00 | 0.00 | 0.00 | 71 | 1016.3 |
| 20260904233103 | 26 | 124 | 1.6 | 11.3 | 0.00 | 0.00 | 0.00 | 69 | 1016.6 |
| 20260904231602 | 26 | 82 | 4.8 | 14.5 | 0.00 | 0.00 | 0.00 | 62 | 1016.0 |
| 20260904230108 | 27 | 36 | 1.6 | 17.7 | 0.00 | 0.00 | 0.00 | 62 | 1015.8 |
| 20260904224548 | 27 | 111 | 11.3 | 25.7 | 0.00 | 0.00 | 0.00 | 59 | 1016.3 |
| 20260904223057 | 30 | 0 | 0.0 | 16.1 | 0.00 | 0.00 | 0.00 | 60 | 1016.3 |
| 20260904221554 | 32 | 115 | 1.6 | 11.3 | 0.00 | 0.00 | 0.00 | 53 | 1015.8 |
| 20260904220052 | 33 | 0 | 0.0 | 0.0 | 0.00 | 0.00 | 0.00 | 52 | 1014.9 |
| 20260904214550 | 34 | 0 | 0.0 | 6.4 | 0.00 | 0.00 | 0.00 | 51 | 1014.4 |
| 20260904213056 | 34 | 0 | 0.0 | 4.8 | 0.00 | 0.00 | 0.00 | 50 | 1014.2 |
| 20260904211552 | 35 | 0 | 0.0 | 1.6 | 0.00 | 0.00 | 0.00 | 49 | 1014.5 |
| 20260904210048 | 35 | 0 | 1.6 | 9.7 | 0.00 | 0.00 | 0.00 | 46 | 1014.6 |
| 20260904204554 | 36 | 0 | 3.2 | 14.5 | 0.00 | 0.00 | 0.00 | 44 | 1014.5 |
| 20260904203053 | 36 | 150 | 0.0 | 12.9 | 0.00 | 0.00 | 0.00 | 46 | 1014.4 |
| 20260904201558 | 36 | 0 | 0.0 | 6.4 | 0.00 | 0.00 | 0.00 | 47 | 1014.3 |
| 20260904200110 | 36 | 0 | 1.6 | 9.7 | 0.00 | 0.00 | 0.00 | 42 | 1014.6 |
| 20260904194556 | 36 | 0 | 0.0 | 4.8 | 0.00 | 0.00 | 0.00 | 44 | 1014.9 |
| 20260904193053 | 36 | 263 | 0.0 | 6.4 | 0.00 | 0.00 | 0.00 | 41 | 1015.2 |
| 20260904191550 | 36 | 0 | 0.0 | 9.7 | 0.00 | 0.00 | 0.00 | 41 | 1015.6 |
| 20260904190057 | 36 | 0 | 0.0 | 4.8 | 0.00 | 0.00 | 0.00 | 44 | 1015.7 |
| 20260904184552 | 35 | 0 | 0.0 | 6.4 | 0.00 | 0.00 | 0.00 | 47 | 1016.0 |
| 20260904183107 | 36 | 0 | 0.0 | 0.0 | 0.00 | 0.00 | 0.00 | 47 | 1016.2 |
| 20260904181600 | 35 | 0 | 0.0 | 3.2 | 0.00 | 0.00 | 0.00 | 48 | 1016.3 |
| 20260904180057 | 35 | 336 | 0.0 | 4.8 | 0.00 | 0.00 | 0.00 | 47 | 1016.5 |
| 20260904174601 | 35 | 0 | 0.0 | 8.0 | 0.00 | 0.00 | 0.00 | 49 | 1016.7 |
| 20260904173102 | 35 | 0 | 0.0 | 6.4 | 0.00 | 0.00 | 0.00 | 51 | 1016.9 |
| 20260904171608 | 35 | 240 | 1.6 | 8.0 | 0.00 | 0.00 | 0.00 | 50 | 1017.1 |
| 20260904170051 | 34 | 0 | 0.0 | 3.2 | 0.00 | 0.00 | 0.00 | 55 | 1017.1 |
| 20260904164600 | 35 | 0 | 0.0 | 0.0 | 0.00 | 0.00 | 0.00 | 55 | 1017.3 |
| 20260904163100 | 33 | 0 | 0.0 | 1.6 | 0.00 | 0.00 | 0.00 | 55 | 1017.5 |
| 20260904161554 | 33 | 0 | 0.0 | 3.2 | 0.00 | 0.00 | 0.00 | 58 | 1017.8 |
| 20260904160054 | 33 | 0 | 0.0 | 8.0 | 0.00 | 0.00 | 0.00 | 57 | 1017.9 |
| 20260904154550 | 32 | 0 | 0.0 | 0.0 | 0.00 | 0.00 | 0.00 | 60 | 1018.0 |
| 20260904153105 | 32 | 220 | 0.0 | 3.2 | 0.00 | 0.00 | 0.00 | 63 | 1018.1 |
| 20260904151555 | 32 | 0 | 0.0 | 3.2 | 0.00 | 0.00 | 0.00 | 63 | 1018.1 |
| 20260904150051 | 31 | 258 | 0.0 | 8.0 | 0.00 | 0.00 | 0.00 | 65 | 1018.2 |
| 20260904144549 | 31 | 0 | 0.0 | 4.8 | 0.00 | 0.00 | 0.00 | 67 | 1018.2 |
| 20260904143045 | 30 | 0 | 0.0 | 6.4 | 0.00 | 0.00 | 0.00 | 68 | 1018.3 |
| 20260904141555 | 29 | 200 | 1.6 | 12.9 | 0.00 | 0.00 | 0.00 | 70 | 1018.3 |
| 20260904140052 | 28 | 0 | 0.0 | 6.4 | 0.00 | 0.00 | 0.00 | 71 | 1018.3 |
| 20260904134557 | 28 | 0 | 0.0 | 1.6 | 0.00 | 0.00 | 0.00 | 73 | 1018.1 |